Datum;"Wasserstand in cm";"Stationsnummer: 5935000";"Stationsname: Perleberg, Schule";"Gew?sser: Stepenitz";"Fehlwerte: -777"
"17.03.2024 00:00";138
"17.03.2024 00:15";138
"17.03.2024 00:30";138
"17.03.2024 00:45";138
"17.03.2024 01:00";138
"17.03.2024 01:15";138
"17.03.2024 01:30";138
"17.03.2024 01:45";138
"17.03.2024 02:00";138
"17.03.2024 02:15";138
"17.03.2024 02:30";138
"17.03.2024 02:45";138
"17.03.2024 03:00";138
"17.03.2024 03:15";138
"17.03.2024 03:30";138
"17.03.2024 03:45";138
"17.03.2024 04:00";138
"17.03.2024 04:15";138
"17.03.2024 04:30";138
"17.03.2024 04:45";138
"17.03.2024 05:00";138
"17.03.2024 05:15";138
"17.03.2024 05:30";138
"17.03.2024 05:45";138
"17.03.2024 06:00";138
"17.03.2024 06:15";138
"17.03.2024 06:30";138
"17.03.2024 06:45";138
"17.03.2024 07:00";138
"17.03.2024 07:15";138
"17.03.2024 07:30";138
"17.03.2024 07:45";138
"17.03.2024 08:00";138
"17.03.2024 08:15";138
"17.03.2024 08:30";138
"17.03.2024 08:45";138
"17.03.2024 09:00";138
"17.03.2024 09:15";138
"17.03.2024 09:30";138
"17.03.2024 09:45";138
"17.03.2024 10:00";138
"17.03.2024 10:15";138
"17.03.2024 10:30";138
"17.03.2024 10:45";138
"17.03.2024 11:00";138
"17.03.2024 11:15";138
"17.03.2024 11:30";138
"17.03.2024 11:45";138
"17.03.2024 12:00";138
"17.03.2024 12:15";138
"17.03.2024 12:30";138
"17.03.2024 12:45";138
"17.03.2024 13:00";138
"17.03.2024 13:15";138
"17.03.2024 13:30";138
"17.03.2024 13:45";138
"17.03.2024 14:00";138
"17.03.2024 14:15";138
"17.03.2024 14:30";138
"17.03.2024 14:45";138
"17.03.2024 15:00";138
"17.03.2024 15:15";138
"17.03.2024 15:30";138
"17.03.2024 15:45";138
"17.03.2024 16:00";138
"17.03.2024 16:15";138
"17.03.2024 16:30";138
"17.03.2024 16:45";138
"17.03.2024 17:00";138
"17.03.2024 17:15";138
"17.03.2024 17:30";138
"17.03.2024 17:45";138
"17.03.2024 18:00";138
"17.03.2024 18:15";138
"17.03.2024 18:30";138
"17.03.2024 18:45";138
"17.03.2024 19:00";138
"17.03.2024 19:15";138
"17.03.2024 19:30";138
"17.03.2024 19:45";138
"17.03.2024 20:00";138
"17.03.2024 20:15";138
"17.03.2024 20:30";138
"17.03.2024 20:45";138
"17.03.2024 21:00";138
"17.03.2024 21:15";138
"17.03.2024 21:30";138
"17.03.2024 21:45";138
"17.03.2024 22:00";138
"17.03.2024 22:15";138
"17.03.2024 22:30";138
"17.03.2024 22:45";138
"17.03.2024 23:00";138
"17.03.2024 23:15";138
"17.03.2024 23:30";138
"17.03.2024 23:45";137
"18.03.2024 00:00";137
"18.03.2024 00:15";137
"18.03.2024 00:30";137
"18.03.2024 00:45";137
"18.03.2024 01:00";137
"18.03.2024 01:15";137
"18.03.2024 01:30";137
"18.03.2024 01:45";137
"18.03.2024 02:00";137
"18.03.2024 02:15";137
"18.03.2024 02:30";137
"18.03.2024 02:45";137
"18.03.2024 03:00";137
"18.03.2024 03:15";137
"18.03.2024 03:30";137
"18.03.2024 03:45";137
"18.03.2024 04:00";137
"18.03.2024 04:15";137
"18.03.2024 04:30";137
"18.03.2024 04:45";137
"18.03.2024 05:00";137
"18.03.2024 05:15";137
"18.03.2024 05:30";137
"18.03.2024 05:45";137
"18.03.2024 06:00";137
"18.03.2024 06:15";137
"18.03.2024 06:30";137
"18.03.2024 06:45";137
"18.03.2024 07:00";137
"18.03.2024 07:15";137
"18.03.2024 07:30";137
"18.03.2024 07:45";137
"18.03.2024 08:00";137
"18.03.2024 08:15";137
"18.03.2024 08:30";137
"18.03.2024 08:45";137
"18.03.2024 09:00";137
"18.03.2024 09:15";137
"18.03.2024 09:30";137
"18.03.2024 09:45";137
"18.03.2024 10:00";137
"18.03.2024 10:15";137
"18.03.2024 10:30";137
"18.03.2024 10:45";137
"18.03.2024 11:00";137
"18.03.2024 11:15";137
"18.03.2024 11:30";137
"18.03.2024 11:45";137
"18.03.2024 12:00";137
"18.03.2024 12:15";137
"18.03.2024 12:30";137
"18.03.2024 12:45";137
"18.03.2024 13:00";137
"18.03.2024 13:15";137
"18.03.2024 13:30";137
"18.03.2024 13:45";137
"18.03.2024 14:00";137
"18.03.2024 14:15";137
"18.03.2024 14:30";137
"18.03.2024 14:45";137
"18.03.2024 15:00";137
"18.03.2024 15:15";137
"18.03.2024 15:30";137
"18.03.2024 15:45";137
"18.03.2024 16:00";137
"18.03.2024 16:15";137
"18.03.2024 16:30";137
"18.03.2024 16:45";137
"18.03.2024 17:00";137
"18.03.2024 17:15";137
"18.03.2024 17:30";137
"18.03.2024 17:45";137
"18.03.2024 18:00";137
"18.03.2024 18:15";137
"18.03.2024 18:30";137
"18.03.2024 18:45";137
"18.03.2024 19:00";137
"18.03.2024 19:15";137
"18.03.2024 19:30";137
"18.03.2024 19:45";137
"18.03.2024 20:00";137
"18.03.2024 20:15";137
"18.03.2024 20:30";137
"18.03.2024 20:45";137
"18.03.2024 21:00";137
"18.03.2024 21:15";137
"18.03.2024 21:30";137
"18.03.2024 21:45";137
"18.03.2024 22:00";137
"18.03.2024 22:15";137
"18.03.2024 22:30";137
"18.03.2024 22:45";137
"18.03.2024 23:00";137
"18.03.2024 23:15";137
"18.03.2024 23:30";137
"18.03.2024 23:45";137
"19.03.2024 00:00";137
"19.03.2024 00:15";137
"19.03.2024 00:30";137
"19.03.2024 00:45";137
"19.03.2024 01:00";137
"19.03.2024 01:15";137
"19.03.2024 01:30";137
"19.03.2024 01:45";137
"19.03.2024 02:00";137
"19.03.2024 02:15";137
"19.03.2024 02:30";137
"19.03.2024 02:45";137
"19.03.2024 03:00";137
"19.03.2024 03:15";137
"19.03.2024 03:30";137
"19.03.2024 03:45";137
"19.03.2024 04:00";137
"19.03.2024 04:15";137
"19.03.2024 04:30";137
"19.03.2024 04:45";137
"19.03.2024 05:00";137
"19.03.2024 05:15";137
"19.03.2024 05:30";137
"19.03.2024 05:45";137
"19.03.2024 06:00";137
"19.03.2024 06:15";137
"19.03.2024 06:30";137
"19.03.2024 06:45";137
"19.03.2024 07:00";137
"19.03.2024 07:15";137
"19.03.2024 07:30";137
"19.03.2024 07:45";137
"19.03.2024 08:00";137
"19.03.2024 08:15";137
"19.03.2024 08:30";137
"19.03.2024 08:45";137
"19.03.2024 09:00";137
"19.03.2024 09:15";136
"19.03.2024 09:30";136
"19.03.2024 09:45";136
"19.03.2024 10:00";136
"19.03.2024 10:15";136
"19.03.2024 10:30";136
"19.03.2024 10:45";136
"19.03.2024 11:00";136
"19.03.2024 11:15";136
"19.03.2024 11:30";136
"19.03.2024 11:45";136
"19.03.2024 12:00";136
"19.03.2024 12:15";136
"19.03.2024 12:30";136
"19.03.2024 12:45";136
"19.03.2024 13:00";136
"19.03.2024 13:15";136
"19.03.2024 13:30";136
"19.03.2024 13:45";136
"19.03.2024 14:00";136
"19.03.2024 14:15";136
"19.03.2024 14:30";136
"19.03.2024 14:45";136
"19.03.2024 15:00";136
"19.03.2024 15:15";136
"19.03.2024 15:30";136
"19.03.2024 15:45";136
"19.03.2024 16:00";136
"19.03.2024 16:15";136
"19.03.2024 16:30";136
"19.03.2024 16:45";136
"19.03.2024 17:00";136
"19.03.2024 17:15";136
"19.03.2024 17:30";136
"19.03.2024 17:45";136
"19.03.2024 18:00";136
"19.03.2024 18:15";136
"19.03.2024 18:30";136
"19.03.2024 18:45";136
"19.03.2024 19:00";136
"19.03.2024 19:15";136
"19.03.2024 19:30";136
"19.03.2024 19:45";136
"19.03.2024 20:00";136
"19.03.2024 20:15";136
"19.03.2024 20:30";136
"19.03.2024 20:45";136
"19.03.2024 21:00";136
"19.03.2024 21:15";136
"19.03.2024 21:30";136
"19.03.2024 21:45";136
"19.03.2024 22:00";136
"19.03.2024 22:15";136
"19.03.2024 22:30";136
"19.03.2024 22:45";136
"19.03.2024 23:00";136
"19.03.2024 23:15";136
"19.03.2024 23:30";136
"19.03.2024 23:45";136
"20.03.2024 00:00";136
"20.03.2024 00:15";136
"20.03.2024 00:30";136
"20.03.2024 00:45";136
"20.03.2024 01:00";136
"20.03.2024 01:15";136
"20.03.2024 01:30";136
"20.03.2024 01:45";136
"20.03.2024 02:00";136
"20.03.2024 02:15";136
"20.03.2024 02:30";136
"20.03.2024 02:45";136
"20.03.2024 03:00";136
"20.03.2024 03:15";136
"20.03.2024 03:30";136
"20.03.2024 03:45";136
"20.03.2024 04:00";136
"20.03.2024 04:15";136
"20.03.2024 04:30";136
"20.03.2024 04:45";136
"20.03.2024 05:00";136
"20.03.2024 05:15";136
"20.03.2024 05:30";136
"20.03.2024 05:45";136
"20.03.2024 06:00";136
"20.03.2024 06:15";136
"20.03.2024 06:30";136
"20.03.2024 06:45";136
"20.03.2024 07:00";136
"20.03.2024 07:15";136
"20.03.2024 07:30";136
"20.03.2024 07:45";136
"20.03.2024 08:00";136
"20.03.2024 08:15";136
"20.03.2024 08:30";136
"20.03.2024 08:45";136
"20.03.2024 09:00";136
"20.03.2024 09:15";136
"20.03.2024 09:30";136
"20.03.2024 09:45";136
"20.03.2024 10:00";136
"20.03.2024 10:15";136
"20.03.2024 10:30";136
"20.03.2024 10:45";136
"20.03.2024 11:00";136
"20.03.2024 11:15";136
"20.03.2024 11:30";136
"20.03.2024 11:45";136
"20.03.2024 12:00";136
"20.03.2024 12:15";135
"20.03.2024 12:30";133
"20.03.2024 12:45";133
"20.03.2024 13:00";134
"20.03.2024 13:15";135
"20.03.2024 13:30";135
"20.03.2024 13:45";136
"20.03.2024 14:00";136
"20.03.2024 14:15";136
"20.03.2024 14:30";136
"20.03.2024 14:45";136
"20.03.2024 15:00";136
"20.03.2024 15:15";136
"20.03.2024 15:30";136
"20.03.2024 15:45";136
"20.03.2024 16:00";136
"20.03.2024 16:15";136
"20.03.2024 16:30";136
"20.03.2024 16:45";136
"20.03.2024 17:00";136
"20.03.2024 17:15";136
"20.03.2024 17:30";136
"20.03.2024 17:45";136
"20.03.2024 18:00";136
"20.03.2024 18:15";136
"20.03.2024 18:30";136
"20.03.2024 18:45";136
"20.03.2024 19:00";136
"20.03.2024 19:15";136
"20.03.2024 19:30";136
"20.03.2024 19:45";136
"20.03.2024 20:00";136
"20.03.2024 20:15";136
"20.03.2024 20:30";136
"20.03.2024 20:45";136
"20.03.2024 21:00";136
"20.03.2024 21:15";136
"20.03.2024 21:30";136
"20.03.2024 21:45";136
"20.03.2024 22:00";136
"20.03.2024 22:15";136
"20.03.2024 22:30";136
"20.03.2024 22:45";136
"20.03.2024 23:00";136
"20.03.2024 23:15";136
"20.03.2024 23:30";136
"20.03.2024 23:45";136
"21.03.2024 00:00";136
"21.03.2024 00:15";136
"21.03.2024 00:30";136
"21.03.2024 00:45";136
"21.03.2024 01:00";136
"21.03.2024 01:15";136
"21.03.2024 01:30";136
"21.03.2024 01:45";136
"21.03.2024 02:00";136
"21.03.2024 02:15";136
"21.03.2024 02:30";136
"21.03.2024 02:45";136
"21.03.2024 03:00";136
"21.03.2024 03:15";136
"21.03.2024 03:30";136
"21.03.2024 03:45";136
"21.03.2024 04:00";136
"21.03.2024 04:15";136
"21.03.2024 04:30";136
"21.03.2024 04:45";136
"21.03.2024 05:00";136
"21.03.2024 05:15";136
"21.03.2024 05:30";136
"21.03.2024 05:45";137
"21.03.2024 06:00";137
"21.03.2024 06:15";137
"21.03.2024 06:30";137
"21.03.2024 06:45";136
"21.03.2024 07:00";136
"21.03.2024 07:15";136
"21.03.2024 07:30";137
"21.03.2024 07:45";137
"21.03.2024 08:00";138
"21.03.2024 08:15";139
"21.03.2024 08:30";139
"21.03.2024 08:45";138
"21.03.2024 09:00";138
"21.03.2024 09:15";137
"21.03.2024 09:30";137
"21.03.2024 09:45";137
"21.03.2024 10:00";137
"21.03.2024 10:15";136
"21.03.2024 10:30";136
"21.03.2024 10:45";136
"21.03.2024 11:00";136
"21.03.2024 11:15";136
"21.03.2024 11:30";136
"21.03.2024 11:45";135
"21.03.2024 12:00";131
"21.03.2024 12:15";130
"21.03.2024 12:30";133
"21.03.2024 12:45";138
"21.03.2024 13:00";141
"21.03.2024 13:15";141
"21.03.2024 13:30";140
"21.03.2024 13:45";139
"21.03.2024 14:00";139
"21.03.2024 14:15";138
"21.03.2024 14:30";137
"21.03.2024 14:45";137
"21.03.2024 15:00";134
"21.03.2024 15:15";133
"21.03.2024 15:30";133
"21.03.2024 15:45";135
"21.03.2024 16:00";136
"21.03.2024 16:15";136
"21.03.2024 16:30";137
"21.03.2024 16:45";139
"21.03.2024 17:00";141
"21.03.2024 17:15";141
"21.03.2024 17:30";140
"21.03.2024 17:45";139
"21.03.2024 18:00";138
"21.03.2024 18:15";138
"21.03.2024 18:30";138
"21.03.2024 18:45";137
"21.03.2024 19:00";137
"21.03.2024 19:15";137
"21.03.2024 19:30";137
"21.03.2024 19:45";137
"21.03.2024 20:00";137
"21.03.2024 20:15";137
"21.03.2024 20:30";137
"21.03.2024 20:45";137
"21.03.2024 21:00";138
"21.03.2024 21:15";138
"21.03.2024 21:30";138
"21.03.2024 21:45";138
"21.03.2024 22:00";138
"21.03.2024 22:15";138
"21.03.2024 22:30";138
"21.03.2024 22:45";138
"21.03.2024 23:00";138
"21.03.2024 23:15";138
"21.03.2024 23:30";138
"21.03.2024 23:45";138
"22.03.2024 00:00";138
"22.03.2024 00:15";138
"22.03.2024 00:30";138
"22.03.2024 00:45";138
"22.03.2024 01:00";138
"22.03.2024 01:15";138
"22.03.2024 01:30";138
"22.03.2024 01:45";139
"22.03.2024 02:00";139
"22.03.2024 02:15";139
"22.03.2024 02:30";139
"22.03.2024 02:45";139
"22.03.2024 03:00";139
"22.03.2024 03:15";139
"22.03.2024 03:30";139
"22.03.2024 03:45";139
"22.03.2024 04:00";139
"22.03.2024 04:15";139
"22.03.2024 04:30";139
"22.03.2024 04:45";139
"22.03.2024 05:00";139
"22.03.2024 05:15";139
"22.03.2024 05:30";139
"22.03.2024 05:45";139
"22.03.2024 06:00";139
"22.03.2024 06:15";139
"22.03.2024 06:30";139
"22.03.2024 06:45";139
"22.03.2024 07:00";139
"22.03.2024 07:15";139
"22.03.2024 07:30";139
"22.03.2024 07:45";139
"22.03.2024 08:00";139
"22.03.2024 08:15";139
"22.03.2024 08:30";139
"22.03.2024 08:45";139
"22.03.2024 09:00";139
"22.03.2024 09:15";139
"22.03.2024 09:30";139
"22.03.2024 09:45";139
"22.03.2024 10:00";139
"22.03.2024 10:15";139
"22.03.2024 10:30";139
"22.03.2024 10:45";139
"22.03.2024 11:00";139
"22.03.2024 11:15";139
"22.03.2024 11:30";139
"22.03.2024 11:45";139
"22.03.2024 12:00";139
"22.03.2024 12:15";139
"22.03.2024 12:30";139
"22.03.2024 12:45";139
"22.03.2024 13:00";139
"22.03.2024 13:15";139
"22.03.2024 13:30";139
"22.03.2024 13:45";139
"22.03.2024 14:00";139
"22.03.2024 14:15";139
"22.03.2024 14:30";139
"22.03.2024 14:45";139
"22.03.2024 15:00";139
"22.03.2024 15:15";139
"22.03.2024 15:30";139
"22.03.2024 15:45";139
"22.03.2024 16:00";139
"22.03.2024 16:15";139
"22.03.2024 16:30";139
"22.03.2024 16:45";139
"22.03.2024 17:00";139
"22.03.2024 17:15";139
"22.03.2024 17:30";139
"22.03.2024 17:45";139
"22.03.2024 18:00";139
"22.03.2024 18:15";139
"22.03.2024 18:30";139
"22.03.2024 18:45";139
"22.03.2024 19:00";139
"22.03.2024 19:15";139
"22.03.2024 19:30";139
"22.03.2024 19:45";139
"22.03.2024 20:00";139
"22.03.2024 20:15";139
"22.03.2024 20:30";139
"22.03.2024 20:45";139
"22.03.2024 21:00";139
"22.03.2024 21:15";139
"22.03.2024 21:30";139
"22.03.2024 21:45";139
"22.03.2024 22:00";139
"22.03.2024 22:15";139
"22.03.2024 22:30";139
"22.03.2024 22:45";139
"22.03.2024 23:00";139
"22.03.2024 23:15";139
"22.03.2024 23:30";139
"22.03.2024 23:45";139
"23.03.2024 00:00";139
"23.03.2024 00:15";139
"23.03.2024 00:30";139
"23.03.2024 00:45";139
"23.03.2024 01:00";139
"23.03.2024 01:15";139
"23.03.2024 01:30";139
"23.03.2024 01:45";139
"23.03.2024 02:00";139
"23.03.2024 02:15";139
"23.03.2024 02:30";139
"23.03.2024 02:45";139
"23.03.2024 03:00";139
"23.03.2024 03:15";139
"23.03.2024 03:30";139
"23.03.2024 03:45";139
"23.03.2024 04:00";139
"23.03.2024 04:15";139
"23.03.2024 04:30";139
"23.03.2024 04:45";139
"23.03.2024 05:00";139
"23.03.2024 05:15";139
"23.03.2024 05:30";139
"23.03.2024 05:45";139
"23.03.2024 06:00";139
"23.03.2024 06:15";139
"23.03.2024 06:30";139
"23.03.2024 06:45";139
"23.03.2024 07:00";139
"23.03.2024 07:15";139
"23.03.2024 07:30";139
"23.03.2024 07:45";139
"23.03.2024 08:00";139
"23.03.2024 08:15";139
"23.03.2024 08:30";139
"23.03.2024 08:45";139
"23.03.2024 09:00";139
"23.03.2024 09:15";139
"23.03.2024 09:30";139
"23.03.2024 09:45";139
"23.03.2024 10:00";139
"23.03.2024 10:15";139
"23.03.2024 10:30";139
"23.03.2024 10:45";139
"23.03.2024 11:00";139
"23.03.2024 11:15";139
"23.03.2024 11:30";139
"23.03.2024 11:45";139
"23.03.2024 12:00";139
"23.03.2024 12:15";139
"23.03.2024 12:30";140
"23.03.2024 12:45";140
"23.03.2024 13:00";140
"23.03.2024 13:15";140
"23.03.2024 13:30";140
"23.03.2024 13:45";140
"23.03.2024 14:00";140
"23.03.2024 14:15";140
"23.03.2024 14:30";140
"23.03.2024 14:45";140
"23.03.2024 15:00";140
"23.03.2024 15:15";140
"23.03.2024 15:30";140
"23.03.2024 15:45";140
"23.03.2024 16:00";140
"23.03.2024 16:15";140
"23.03.2024 16:30";140
"23.03.2024 16:45";140
"23.03.2024 17:00";140
"23.03.2024 17:15";140
"23.03.2024 17:30";140
"23.03.2024 17:45";140
"23.03.2024 18:00";140
"23.03.2024 18:15";140
"23.03.2024 18:30";140
"23.03.2024 18:45";140
"23.03.2024 19:00";140
"23.03.2024 19:15";140
"23.03.2024 19:30";140
"23.03.2024 19:45";140
"23.03.2024 20:00";140
"23.03.2024 20:15";140
"23.03.2024 20:30";140
"23.03.2024 20:45";140
"23.03.2024 21:00";140
"23.03.2024 21:15";140
"23.03.2024 21:30";140
"23.03.2024 21:45";140
"23.03.2024 22:00";140
"23.03.2024 22:15";140
"23.03.2024 22:30";140
"23.03.2024 22:45";140
"23.03.2024 23:00";140
"23.03.2024 23:15";140
"23.03.2024 23:30";140
"23.03.2024 23:45";140
"24.03.2024 00:00";140
"24.03.2024 00:15";140
"24.03.2024 00:30";140
"24.03.2024 00:45";140
"24.03.2024 01:00";140
"24.03.2024 01:15";140
"24.03.2024 01:30";140
"24.03.2024 01:45";140
"24.03.2024 02:00";140
"24.03.2024 02:15";140
"24.03.2024 02:30";140
"24.03.2024 02:45";140
"24.03.2024 03:00";140
"24.03.2024 03:15";140
"24.03.2024 03:30";140
"24.03.2024 03:45";140
"24.03.2024 04:00";140
"24.03.2024 04:15";140
"24.03.2024 04:30";140
"24.03.2024 04:45";140
"24.03.2024 05:00";140
"24.03.2024 05:15";140
"24.03.2024 05:30";140
"24.03.2024 05:45";140
"24.03.2024 06:00";140
"24.03.2024 06:15";140
"24.03.2024 06:30";140
"24.03.2024 06:45";140
"24.03.2024 07:00";140
"24.03.2024 07:15";140
"24.03.2024 07:30";140
"24.03.2024 07:45";140
"24.03.2024 08:00";140
"24.03.2024 08:15";140
"24.03.2024 08:30";140
"24.03.2024 08:45";140
"24.03.2024 09:00";140
"24.03.2024 09:15";140
"24.03.2024 09:30";140
"24.03.2024 09:45";140
"24.03.2024 10:00";140
"24.03.2024 10:15";140
"24.03.2024 10:30";140
"24.03.2024 10:45";140
"24.03.2024 11:00";140
"24.03.2024 11:15";140
"24.03.2024 11:30";140
"24.03.2024 11:45";140
"24.03.2024 12:00";140
"24.03.2024 12:15";140
"24.03.2024 12:30";140
"24.03.2024 12:45";140
"24.03.2024 13:00";140
"24.03.2024 13:15";140
"24.03.2024 13:30";140
"24.03.2024 13:45";140
"24.03.2024 14:00";140
"24.03.2024 14:15";140
"24.03.2024 14:30";140
"24.03.2024 14:45";140
"24.03.2024 15:00";140
"24.03.2024 15:15";140
"24.03.2024 15:30";140
"24.03.2024 15:45";140
"24.03.2024 16:00";140
"24.03.2024 16:15";140
"24.03.2024 16:30";140
"24.03.2024 16:45";140
"24.03.2024 17:00";140
"24.03.2024 17:15";140
"24.03.2024 17:30";140
"24.03.2024 17:45";140
"24.03.2024 18:00";140
"24.03.2024 18:15";140
"24.03.2024 18:30";140
"24.03.2024 18:45";140
"24.03.2024 19:00";140
"24.03.2024 19:15";140
"24.03.2024 19:30";140
"24.03.2024 19:45";140
"24.03.2024 20:00";140
"24.03.2024 20:15";140
"24.03.2024 20:30";140
"24.03.2024 20:45";140
"24.03.2024 21:00";140
"24.03.2024 21:15";140
"24.03.2024 21:30";140
"24.03.2024 21:45";140
"24.03.2024 22:00";140
"24.03.2024 22:15";140
"24.03.2024 22:30";140
"24.03.2024 22:45";140
"24.03.2024 23:00";140
"24.03.2024 23:15";140
"24.03.2024 23:30";140
"24.03.2024 23:45";140
"25.03.2024 00:00";140
"25.03.2024 00:15";140
"25.03.2024 00:30";140
"25.03.2024 00:45";140
"25.03.2024 01:00";140
"25.03.2024 01:15";140
"25.03.2024 01:30";140
"25.03.2024 01:45";140
"25.03.2024 02:00";140
"25.03.2024 02:15";140
"25.03.2024 02:30";140
"25.03.2024 02:45";140
"25.03.2024 03:00";140
"25.03.2024 03:15";140
"25.03.2024 03:30";140
"25.03.2024 03:45";140
"25.03.2024 04:00";140
"25.03.2024 04:15";140
"25.03.2024 04:30";140
"25.03.2024 04:45";140
"25.03.2024 05:00";140
"25.03.2024 05:15";140
"25.03.2024 05:30";141
"25.03.2024 05:45";141
"25.03.2024 06:00";141
"25.03.2024 06:15";141
"25.03.2024 06:30";141
"25.03.2024 06:45";141
"25.03.2024 07:00";141
"25.03.2024 07:15";141
"25.03.2024 07:30";141
"25.03.2024 07:45";141
"25.03.2024 08:00";141
"25.03.2024 08:15";141
"25.03.2024 08:30";141
"25.03.2024 08:45";141
"25.03.2024 09:00";141
"25.03.2024 09:15";141
"25.03.2024 09:30";141
"25.03.2024 09:45";141
"25.03.2024 10:00";141
"25.03.2024 10:15";141
"25.03.2024 10:30";142
"25.03.2024 10:45";142
"25.03.2024 11:00";142
"25.03.2024 11:15";142
"25.03.2024 11:30";142
"25.03.2024 11:45";142
"25.03.2024 12:00";142
"25.03.2024 12:15";142
"25.03.2024 12:30";142
"25.03.2024 12:45";142
"25.03.2024 13:00";142
"25.03.2024 13:15";142
"25.03.2024 13:30";142
"25.03.2024 13:45";142
"25.03.2024 14:00";142
"25.03.2024 14:15";142
"25.03.2024 14:30";142
"25.03.2024 14:45";142
"25.03.2024 15:00";142
"25.03.2024 15:15";142
"25.03.2024 15:30";142
"25.03.2024 15:45";142
"25.03.2024 16:00";142
"25.03.2024 16:15";142
"25.03.2024 16:30";142
"25.03.2024 16:45";142
"25.03.2024 17:00";142
"25.03.2024 17:15";142
"25.03.2024 17:30";142
"25.03.2024 17:45";142
"25.03.2024 18:00";142
"25.03.2024 18:15";142
"25.03.2024 18:30";142
"25.03.2024 18:45";142
"25.03.2024 19:00";142
"25.03.2024 19:15";142
"25.03.2024 19:30";142
"25.03.2024 19:45";142
"25.03.2024 20:00";142
"25.03.2024 20:15";142
"25.03.2024 20:30";142
"25.03.2024 20:45";142
"25.03.2024 21:00";142
"25.03.2024 21:15";142
"25.03.2024 21:30";142
"25.03.2024 21:45";142
"25.03.2024 22:00";142
"25.03.2024 22:15";142
"25.03.2024 22:30";142
"25.03.2024 22:45";142
"25.03.2024 23:00";142
"25.03.2024 23:15";142
"25.03.2024 23:30";142
"25.03.2024 23:45";143
"26.03.2024 00:00";143
"26.03.2024 00:15";143
"26.03.2024 00:30";143
"26.03.2024 00:45";143
"26.03.2024 01:00";143
"26.03.2024 01:15";143
"26.03.2024 01:30";143
"26.03.2024 01:45";143
"26.03.2024 02:00";143
"26.03.2024 02:15";143
"26.03.2024 02:30";143
"26.03.2024 02:45";143
"26.03.2024 03:00";143
"26.03.2024 03:15";143
"26.03.2024 03:30";143
"26.03.2024 03:45";143
"26.03.2024 04:00";143
"26.03.2024 04:15";143
"26.03.2024 04:30";143
"26.03.2024 04:45";143
"26.03.2024 05:00";143
"26.03.2024 05:15";143
"26.03.2024 05:30";143
"26.03.2024 05:45";143
"26.03.2024 06:00";143
"26.03.2024 06:15";143
"26.03.2024 06:30";143
"26.03.2024 06:45";143
"26.03.2024 07:00";143
"26.03.2024 07:15";143
"26.03.2024 07:30";143
"26.03.2024 07:45";143
"26.03.2024 08:00";143
"26.03.2024 08:15";143
"26.03.2024 08:30";143
"26.03.2024 08:45";143
"26.03.2024 09:00";143
"26.03.2024 09:15";143
"26.03.2024 09:30";143
"26.03.2024 09:45";143
"26.03.2024 10:00";143
"26.03.2024 10:15";143
"26.03.2024 10:30";143
"26.03.2024 10:45";143
"26.03.2024 11:00";143
"26.03.2024 11:15";143
"26.03.2024 11:30";143
"26.03.2024 11:45";143
"26.03.2024 12:00";143
"26.03.2024 12:15";143
"26.03.2024 12:30";143
"26.03.2024 12:45";143
"26.03.2024 13:00";143
"26.03.2024 13:15";143
"26.03.2024 13:30";143
"26.03.2024 13:45";143
"26.03.2024 14:00";143
"26.03.2024 14:15";143
"26.03.2024 14:30";143
"26.03.2024 14:45";143
"26.03.2024 15:00";143
"26.03.2024 15:15";143
"26.03.2024 15:30";143
"26.03.2024 15:45";143
"26.03.2024 16:00";143
"26.03.2024 16:15";143
"26.03.2024 16:30";143
"26.03.2024 16:45";143
"26.03.2024 17:00";143
"26.03.2024 17:15";143
"26.03.2024 17:30";143
"26.03.2024 17:45";143
"26.03.2024 18:00";143
"26.03.2024 18:15";143
"26.03.2024 18:30";143
"26.03.2024 18:45";143
"26.03.2024 19:00";143
"26.03.2024 19:15";143
"26.03.2024 19:30";143
"26.03.2024 19:45";143
"26.03.2024 20:00";143
"26.03.2024 20:15";143
"26.03.2024 20:30";143
"26.03.2024 20:45";143
"26.03.2024 21:00";143
"26.03.2024 21:15";143
"26.03.2024 21:30";143
"26.03.2024 21:45";143
"26.03.2024 22:00";143
"26.03.2024 22:15";143
"26.03.2024 22:30";143
"26.03.2024 22:45";143
"26.03.2024 23:00";143
"26.03.2024 23:15";143
"26.03.2024 23:30";143
"26.03.2024 23:45";143
"27.03.2024 00:00";143
"27.03.2024 00:15";143
"27.03.2024 00:30";143
"27.03.2024 00:45";143
"27.03.2024 01:00";143
"27.03.2024 01:15";143
"27.03.2024 01:30";143
"27.03.2024 01:45";143
"27.03.2024 02:00";143
"27.03.2024 02:15";143
"27.03.2024 02:30";143
"27.03.2024 02:45";143
"27.03.2024 03:00";143
"27.03.2024 03:15";143
"27.03.2024 03:30";143
"27.03.2024 03:45";143
"27.03.2024 04:00";143
"27.03.2024 04:15";143
"27.03.2024 04:30";143
"27.03.2024 04:45";143
"27.03.2024 05:00";143
"27.03.2024 05:15";143
"27.03.2024 05:30";143
"27.03.2024 05:45";143
"27.03.2024 06:00";143
"27.03.2024 06:15";143
"27.03.2024 06:30";143
"27.03.2024 06:45";143
"27.03.2024 07:00";143
"27.03.2024 07:15";143
"27.03.2024 07:30";143
"27.03.2024 07:45";143
"27.03.2024 08:00";143
"27.03.2024 08:15";143
"27.03.2024 08:30";143
"27.03.2024 08:45";143
"27.03.2024 09:00";143
"27.03.2024 09:15";143
"27.03.2024 09:30";143
"27.03.2024 09:45";143
"27.03.2024 10:00";143
"27.03.2024 10:15";143
"27.03.2024 10:30";143
"27.03.2024 10:45";141
"27.03.2024 11:00";137
"27.03.2024 11:15";140
"27.03.2024 11:30";145
"27.03.2024 11:45";146
"27.03.2024 12:00";145
"27.03.2024 12:15";143
"27.03.2024 12:30";142
"27.03.2024 12:45";142
"27.03.2024 13:00";142
"27.03.2024 13:15";142
"27.03.2024 13:30";142
"27.03.2024 13:45";142
"27.03.2024 14:00";142
"27.03.2024 14:15";142
"27.03.2024 14:30";142
"27.03.2024 14:45";142
"27.03.2024 15:00";142
"27.03.2024 15:15";142
"27.03.2024 15:30";142
"27.03.2024 15:45";142
"27.03.2024 16:00";142
"27.03.2024 16:15";142
"27.03.2024 16:30";142
"27.03.2024 16:45";142
"27.03.2024 17:00";142
"27.03.2024 17:15";142
"27.03.2024 17:30";142
"27.03.2024 17:45";142
"27.03.2024 18:00";142
"27.03.2024 18:15";142
"27.03.2024 18:30";142
"27.03.2024 18:45";142
"27.03.2024 19:00";142
"27.03.2024 19:15";142